Radiation Dose at Monitoring Post of Fukushima Daini Nuclear Power Station
Date,Time,MP-1(microSv/h),MP-2(microSv/h),MP-3(microSv/h),MP-4(microSv/h),MP-5(microSv/h),MP-6(microSv/h),MP-7(microSv/h),Wind Direction,Wind Velocity(m/s),Rain
2017/09/27,00:00,0.343,0.216,0.352,0.329,0.320,0.175,0.105,south-southwest,4.1,No
2017/09/27,00:10,0.348,0.214,0.350,0.332,0.317,0.175,0.104,south-southwest,3.9,No
2017/09/27,00:20,0.344,0.215,0.353,0.329,0.320,0.175,0.104,south-southwest,4.1,No
2017/09/27,00:30,0.346,0.217,0.350,0.331,0.317,0.175,0.105,south-southwest,3.9,No
2017/09/27,00:40,0.344,0.215,0.352,0.331,0.319,0.176,0.105,south-southwest,3.8,No
2017/09/27,00:50,0.348,0.215,0.349,0.332,0.318,0.176,0.104,south-southwest,3.1,No
2017/09/27,01:00,0.345,0.215,0.352,0.330,0.318,0.176,0.104,south-southwest,3.1,No
2017/09/27,01:10,0.347,0.215,0.351,0.331,0.317,0.175,0.104,south-southwest,4.4,No
2017/09/27,01:20,0.345,0.215,0.353,0.331,0.319,0.175,0.104,south-southwest,4.3,No
2017/09/27,01:30,0.345,0.216,0.349,0.332,0.319,0.176,0.104,south-southwest,4.8,No
2017/09/27,01:40,0.346,0.216,0.352,0.330,0.319,0.176,0.104,south-southwest,4.5,No
2017/09/27,01:50,0.347,0.215,0.350,0.332,0.317,0.174,0.104,south-southwest,4.3,No
2017/09/27,02:00,0.346,0.215,0.350,0.330,0.319,0.175,0.104,south-southwest,3.8,No
2017/09/27,02:10,0.347,0.215,0.350,0.330,0.317,0.175,0.104,south-southwest,4.5,No
2017/09/27,02:20,0.346,0.215,0.351,0.329,0.317,0.175,0.105,south-southwest,6.7,No
2017/09/27,02:30,0.345,0.215,0.349,0.332,0.316,0.174,0.104,south,6.6,No
2017/09/27,02:40,0.346,0.214,0.352,0.330,0.317,0.175,0.104,south,6.2,No
2017/09/27,02:50,0.345,0.214,0.349,0.329,0.318,0.174,0.104,south,5.4,No
2017/09/27,03:00,0.346,0.213,0.352,0.330,0.316,0.175,0.104,south-southwest,5.3,No
2017/09/27,03:10,0.345,0.215,0.350,0.332,0.318,0.174,0.104,south-southwest,4.6,No
2017/09/27,03:20,0.347,0.214,0.352,0.330,0.315,0.175,0.104,south,5.3,No
2017/09/27,03:30,0.344,0.215,0.350,0.330,0.318,0.175,0.103,south,5.0,No
2017/09/27,03:40,0.346,0.214,0.352,0.330,0.316,0.176,0.105,south,5.0,No
2017/09/27,03:50,0.344,0.215,0.350,0.331,0.317,0.174,0.103,south,5.3,No
2017/09/27,04:00,0.346,0.214,0.352,0.328,0.316,0.176,0.104,south-southwest,6.3,No
2017/09/27,04:10,0.343,0.215,0.351,0.330,0.318,0.175,0.103,south-southwest,5.8,No
2017/09/27,04:20,0.345,0.214,0.353,0.328,0.314,0.175,0.104,south-southwest,4.6,No
2017/09/27,04:30,0.343,0.213,0.348,0.328,0.318,0.174,0.104,south-southwest,4.2,No
2017/09/27,04:40,0.347,0.214,0.352,0.328,0.315,0.175,0.103,south,4.6,No
2017/09/27,04:50,0.345,0.213,0.349,0.329,0.318,0.174,0.103,south,4.9,No
2017/09/27,05:00,0.347,0.215,0.352,0.329,0.315,0.174,0.104,south,5.0,No
2017/09/27,05:10,0.343,0.215,0.349,0.329,0.317,0.174,0.103,south,4.2,No
2017/09/27,05:20,0.346,0.215,0.353,0.329,0.315,0.175,0.103,south-southwest,3.5,No
2017/09/27,05:30,0.344,0.214,0.349,0.328,0.318,0.174,0.103,south-southwest,3.4,No
2017/09/27,05:40,0.347,0.214,0.352,0.329,0.316,0.176,0.103,south-southwest,3.3,No
2017/09/27,05:50,0.343,0.214,0.350,0.329,0.317,0.175,0.103,south-southwest,3.5,No
2017/09/27,06:00,0.347,0.214,0.352,0.330,0.317,0.175,0.104,south-southwest,3.6,No
2017/09/27,06:10,0.344,0.214,0.348,0.328,0.316,0.175,0.103,south-southwest,3.5,No
2017/09/27,06:20,0.345,0.214,0.351,0.330,0.317,0.175,0.103,south-southwest,3.9,No
2017/09/27,06:30,0.344,0.215,0.350,0.328,0.315,0.174,0.103,south,3.6,No
2017/09/27,06:40,0.345,0.213,0.351,0.329,0.319,0.174,0.104,south,3.4,No
2017/09/27,06:50,0.345,0.214,0.350,0.329,0.315,0.174,0.104,south-southwest,3.7,No
2017/09/27,07:00,0.346,0.213,0.350,0.329,0.318,0.176,0.103,south,3.3,No
2017/09/27,07:10,0.346,0.215,0.352,0.330,0.317,0.175,0.104,south-southwest,5.7,No
2017/09/27,07:20,0.344,0.213,0.349,0.328,0.315,0.175,0.103,south-southwest,6.9,No
2017/09/27,07:30,0.346,0.214,0.351,0.331,0.317,0.174,0.104,south-southwest,8.5,No
2017/09/27,07:40,0.345,0.215,0.348,0.328,0.315,0.173,0.104,south,8.4,No
2017/09/27,07:50,0.343,0.214,0.352,0.329,0.316,0.175,0.103,south-southwest,9.4,No
2017/09/27,08:00,0.347,0.214,0.349,0.331,0.317,0.174,0.103,south-southwest,7.9,No
2017/09/27,08:10,0.343,0.215,0.349,0.327,0.314,0.174,0.103,south,6.2,No
2017/09/27,08:20,0.344,0.214,0.351,0.331,0.318,0.175,0.102,south-southwest,5.0,No
2017/09/27,08:30,0.346,0.216,0.348,0.331,0.316,0.173,0.103,south-southwest,6.1,No
2017/09/27,08:40,0.342,0.214,0.353,0.329,0.312,0.174,0.103,south,6.7,No
2017/09/27,08:50,0.342,0.213,0.350,0.324,0.315,0.174,0.102,south,7.3,No
2017/09/27,09:00,0.346,0.213,0.346,0.325,0.318,0.173,0.101,south,7.2,No
2017/09/27,09:10,0.344,0.211,0.351,0.325,0.315,0.173,0.101,south-southwest,7.5,No
2017/09/27,09:20,0.341,0.213,0.350,0.328,0.315,0.174,0.101,south-southwest,8.4,No
2017/09/27,09:30,0.340,0.211,0.348,0.331,0.312,0.174,0.101,south-southwest,9.5,No
2017/09/27,09:40,0.344,0.212,0.346,0.329,0.313,0.175,0.101,south-southwest,8.5,No
2017/09/27,09:50,0.346,0.211,0.352,0.328,0.313,0.175,0.102,south,6.6,No
2017/09/27,10:00,0.344,0.212,0.350,0.327,0.318,0.175,0.102,south,8.9,No
2017/09/27,10:10,0.344,0.211,0.347,0.329,0.320,0.174,0.101,-,-,No
2017/09/27,10:20,0.342,0.214,0.347,0.328,0.318,0.173,0.102,-,-,No
2017/09/27,10:30,0.342,0.214,0.350,0.328,0.315,0.174,0.102,-,-,No
2017/09/27,10:40,0.344,0.214,0.352,0.329,0.316,0.175,0.101,-,-,No
2017/09/27,10:50,0.343,0.212,0.352,0.329,0.315,0.174,0.102,-,-,No
2017/09/27,11:00,0.342,0.212,0.349,0.328,0.314,0.175,0.102,-,-,No
2017/09/27,11:10,0.344,0.214,0.348,0.329,0.315,0.175,0.101,-,-,No
2017/09/27,11:20,0.344,0.214,0.348,0.330,0.317,0.176,0.102,-,-,No
2017/09/27,11:30,0.344,0.214,0.347,0.328,0.315,0.174,0.101,-,-,No
2017/09/27,11:40,0.344,0.214,0.347,0.327,0.315,0.175,0.101,-,-,No
2017/09/27,11:50,0.343,0.214,0.350,0.328,0.315,0.175,0.101,-,-,No
2017/09/27,12:00,0.343,0.214,0.347,0.329,0.315,0.174,0.102,-,-,No
2017/09/27,12:10,0.343,0.213,0.348,0.329,0.315,0.174,0.102,-,-,No
2017/09/27,12:20,0.342,0.214,0.347,0.328,0.315,0.173,0.102,-,-,No
2017/09/27,12:30,0.343,0.213,0.349,0.329,0.316,0.174,0.101,-,-,No
2017/09/27,12:40,0.342,0.213,0.349,0.328,0.314,0.174,0.101,-,-,No
2017/09/27,12:50,0.342,0.213,0.348,0.327,0.315,0.175,0.102,-,-,No
2017/09/27,13:00,0.340,0.213,0.347,0.329,0.314,0.175,0.103,-,-,No
2017/09/27,13:10,0.348,0.213,0.351,0.333,0.318,0.176,0.103,-,-,No
2017/09/27,13:20,0.348,0.213,0.352,0.332,0.321,0.176,0.103,-,-,No
2017/09/27,13:30,0.346,0.214,0.351,0.330,0.319,0.173,0.102,-,-,No
2017/09/27,13:40,0.344,0.215,0.349,0.329,0.315,0.174,0.103,-,-,No
2017/09/27,13:50,0.341,0.216,0.348,0.328,0.316,0.175,0.102,-,-,No
2017/09/27,14:00,0.345,0.215,0.350,0.331,0.314,0.175,0.101,-,-,No
2017/09/27,14:10,0.348,0.214,0.354,0.332,0.317,0.175,0.103,-,-,No
2017/09/27,14:20,0.345,0.212,0.352,0.331,0.319,0.174,0.102,-,-,No
2017/09/27,14:30,0.343,0.212,0.349,0.329,0.319,0.174,0.101,-,-,No
2017/09/27,14:40,0.342,0.213,0.347,0.327,0.316,0.175,0.102,-,-,No
2017/09/27,14:50,0.347,0.216,0.347,0.332,0.315,0.175,0.102,-,-,No
2017/09/27,15:00,0.348,0.215,0.354,0.333,0.314,0.175,0.103,-,-,No
2017/09/27,15:10,0.345,0.214,0.352,0.331,0.318,0.175,0.102,-,-,No
2017/09/27,15:20,0.343,0.212,0.349,0.329,0.319,0.175,0.102,-,-,No
2017/09/27,15:30,0.345,0.215,0.351,0.333,0.317,0.174,0.102,-,-,No
2017/09/27,15:40,0.348,0.215,0.354,0.334,0.315,0.174,0.102,-,-,No
2017/09/27,15:50,0.344,0.214,0.350,0.330,0.320,0.175,0.102,-,-,No
2017/09/27,16:00,0.343,0.214,0.349,0.329,0.319,0.174,0.101,-,-,No
2017/09/27,16:10,0.346,0.217,0.355,0.333,0.316,0.174,0.102,-,-,No
2017/09/27,16:20,0.346,0.215,0.352,0.330,0.316,0.175,0.104,south,8.9,No
2017/09/27,16:30,0.344,0.214,0.349,0.328,0.320,0.175,0.102,south,10.3,No
2017/09/27,16:40,0.345,0.215,0.354,0.332,0.317,0.174,0.102,south,8.0,No
2017/09/27,16:50,0.348,0.216,0.353,0.332,0.316,0.174,0.103,south,8.6,No
2017/09/27,17:00,0.345,0.213,0.349,0.329,0.320,0.174,0.103,south,8.0,No
2017/09/27,17:10,0.343,0.216,0.352,0.333,0.318,0.174,0.103,south-southwest,9.4,No
2017/09/27,17:20,0.350,0.215,0.353,0.332,0.316,0.172,0.104,south,8.4,No
2017/09/27,17:30,0.345,0.213,0.350,0.331,0.321,0.176,0.104,south-southwest,10.0,No
2017/09/27,17:40,0.344,0.215,0.355,0.334,0.317,0.174,0.104,south-southwest,8.1,No
2017/09/27,17:50,0.348,0.215,0.352,0.331,0.315,0.174,0.104,south-southwest,8.6,No
2017/09/27,18:00,0.346,0.214,0.350,0.328,0.320,0.175,0.103,south-southwest,8.3,No
2017/09/27,18:10,0.344,0.215,0.353,0.333,0.317,0.174,0.103,south-southwest,8.6,No
2017/09/27,18:20,0.349,0.214,0.352,0.332,0.317,0.174,0.103,south-southwest,8.8,No
2017/09/27,18:30,0.346,0.215,0.351,0.330,0.318,0.175,0.103,south-southwest,9.2,No
2017/09/27,18:40,0.343,0.215,0.353,0.334,0.316,0.175,0.102,south-southwest,9.8,No
2017/09/27,18:50,0.347,0.213,0.351,0.332,0.316,0.173,0.103,south-southwest,9.2,No
2017/09/27,19:00,0.344,0.216,0.351,0.329,0.319,0.176,0.102,south,7.8,Yes
2017/09/27,19:10,0.344,0.215,0.354,0.333,0.316,0.174,0.102,south,5.1,Yes
2017/09/27,19:20,0.348,0.213,0.349,0.332,0.319,0.174,0.103,south-southwest,8.0,Yes
2017/09/27,19:30,0.345,0.217,0.352,0.330,0.320,0.176,0.104,south-southwest,8.7,Yes
2017/09/27,19:40,0.345,0.217,0.354,0.336,0.315,0.176,0.103,south-southwest,10.3,Yes
2017/09/27,19:50,0.349,0.217,0.352,0.332,0.320,0.175,0.104,south,10.4,Yes
2017/09/27,20:00,0.346,0.217,0.355,0.332,0.318,0.176,0.103,south-southwest,9.8,Yes
2017/09/27,20:10,0.344,0.216,0.354,0.334,0.316,0.175,0.105,south,8.1,Yes
2017/09/27,20:20,0.349,0.218,0.351,0.333,0.321,0.177,0.104,south-southwest,8.7,Yes
2017/09/27,20:30,0.348,0.218,0.356,0.334,0.320,0.178,0.105,south-southwest,10.4,Yes
2017/09/27,20:40,0.349,0.219,0.354,0.338,0.320,0.179,0.108,south,9.9,Yes
2017/09/27,20:50,0.351,0.220,0.357,0.335,0.323,0.182,0.108,south-southwest,12.0,Yes
2017/09/27,21:00,0.348,0.219,0.356,0.337,0.319,0.180,0.109,south-southwest,10.7,Yes
2017/09/27,21:10,0.351,0.219,0.355,0.336,0.323,0.179,0.107,south-southwest,9.8,Yes
2017/09/27,21:20,0.348,0.217,0.358,0.335,0.319,0.179,0.106,south-southwest,8.5,Yes
2017/09/27,21:30,0.348,0.216,0.353,0.335,0.320,0.177,0.106,south-southwest,7.3,No
2017/09/27,21:40,0.349,0.216,0.356,0.332,0.320,0.177,0.105,south-southwest,8.9,Yes
2017/09/27,21:50,0.345,0.216,0.354,0.335,0.316,0.177,0.106,south-southwest,9.5,Yes
2017/09/27,22:00,0.349,0.217,0.353,0.333,0.320,0.176,0.105,south-southwest,9.0,No
2017/09/27,22:10,0.345,0.215,0.353,0.332,0.316,0.177,0.104,south-southwest,9.5,No
2017/09/27,22:20,0.346,0.216,0.350,0.333,0.318,0.176,0.104,south-southwest,10.5,No
2017/09/27,22:30,0.348,0.215,0.355,0.330,0.317,0.176,0.103,south-southwest,11.0,No
2017/09/27,22:40,0.344,0.215,0.350,0.333,0.314,0.177,0.104,south-southwest,11.1,No
2017/09/27,22:50,0.347,0.215,0.352,0.333,0.318,0.176,0.104,south-southwest,10.4,Yes
2017/09/27,23:00,0.346,0.213,0.352,0.330,0.317,0.175,0.103,south-southwest,10.3,Yes
2017/09/27,23:10,0.346,0.215,0.350,0.333,0.316,0.175,0.103,south-southwest,10.9,No
2017/09/27,23:20,0.348,0.214,0.353,0.332,0.320,0.174,0.103,south-southwest,11.3,No
2017/09/27,23:30,0.343,0.216,0.352,0.333,0.316,0.176,0.103,south-southwest,9.1,No
2017/09/27,23:40,0.347,0.214,0.350,0.332,0.315,0.175,0.103,south-southwest,7.7,No
2017/09/27,23:50,0.347,0.216,0.354,0.328,0.318,0.174,0.102,south,7.8,No
